Location: Cormont
(50.5693°N, 1.7416°E)
Time: 07:54:34
(UTC+00:00)

STARLINK-24 - Pass Details

Date: 21 October 2019
Orbit: 550 x 552 km, 53.0° (Epoch: 20 November)

Event Time Altitude Azimuth Distance (km) Brightness Sun altitude
Rises 17:25:03 0° 265° (W) 2,720 9.9 -6.3°
Reaches altitude 10° 17:27:18 10° 268° (W) 1,827 8.1 -6.7°
Maximum altitude 17:31:26 66° 351° (N) 606 3.8 -7.3°
Drops below altitude 10° 17:35:34 10° 74° (ENE) 1,830 5.6 -8.0°
Enters shadow 17:35:34 10° 74° (ENE) 1,831 5.6 -8.0°
